Home   Weather   Vadsø   Past weeks

Flag for Norway Past Weather in Vadsø, Norway — Yesterday and Last 2 Weeks

Now
50 °F

Broken clouds.


Feels Like: 46 °F
Forecast: 51 / 54 °F
Wind: 12 mph from Southwest

Location: Vadso

Current Time: Sep 27, 2016 at 9:03:43 AM

Latest Report: Sep 27, 2016 at 7:50 AM


Visibility: N/A

Pressure: 30.15 "Hg

Humidity: 94%

Dew Point: 48 °F

Location of VadsøLocation

Past Weather in Vadsø — Graph

°F

Vadsø Temperature Yesterday

Maximum temperature yesterday: 50 °F (at 6:50 PM)
Minimum temperature yesterday: 34 °F (at 12:50 AM)
Average temperature yesterday: 45 °F

High & Low Weather Summary for the Past Weeks

 TemperatureHumidityPressure
High55 °F (Sep 14, 3:50 PM)100% (Sep 13, 9:50 PM)30.33 "Hg (Sep 13, 9:50 PM)
Low34 °F (Sep 25, 9:50 PM)58% (Sep 15, 4:50 PM)29.56 "Hg (Sep 12, 7:50 AM)
Average48 °F87%30.11 "Hg
* Reported Sep 12 7:50 AM — Sep 27 7:50 AM, Vadsø, Weather by CustomWeather, © 2016

Note: Actual official high and low records may vary slightly from our data, if they occured in-between our weather recording intervals... More about our weather records

Advertising

Vadsø Weather History for the Previous 24 Hours

Scroll right to see more
 ConditionsComfort  
Time TempWeatherWind HumidityBarometerVisibility
7:50 AM
Tue, Sep 27
50 °FBroken clouds.12 mph94%30.15 "HgN/A
6:50 AM50 °FBroken clouds.2 mph94%30.15 "HgN/A
5:50 AM50 °FBroken clouds.9 mph88%30.15 "HgN/A
4:50 AM50 °FBroken clouds.10 mph94%30.15 "HgN/A
4:20 AM50 °FBroken clouds.12 mph88%30.15 "HgN/A
2:20 AM50 °FPassing clouds.8 mph94%30.15 "HgN/A
12:50 AM50 °FPassing clouds.12 mph94%30.15 "HgN/A
11:50 PM
Mon, Sep 26
50 °FPassing clouds.12 mph94%30.15 "HgN/A
10:50 PM50 °FPassing clouds.9 mph94%30.15 "HgN/A
10:20 PM50 °FPassing clouds.7 mph94%30.15 "HgN/A
8:50 PM50 °FPassing clouds.5 mph94%30.15 "HgN/A
7:50 PM50 °FPassing clouds.5 mph94%30.15 "HgN/A
6:50 PM50 °FPassing clouds.5 mph94%30.15 "HgN/A
4:50 PM48 °FPassing clouds.5 mph100%30.15 "HgN/A
3:50 PM48 °FPassing clouds.5 mph94%30.15 "HgN/A
2:50 PM48 °FPartly sunny.3 mph94%30.15 "HgN/A
1:50 PM48 °FPartly sunny.5 mph94%30.15 "HgN/A
11:50 AM48 °FPartly sunny.3 mph87%30.15 "HgN/A
10:50 AM46 °FBroken clouds.No wind93%30.15 "HgN/A
9:50 AM46 °FBroken clouds.5 mph93%30.12 "HgN/A
Weather by CustomWeather, © 2016

See weather overviewHow to use our weather pages